User: anonymous   Login
Location: Petrozavodsk
(61.7857°N, 34.3593°E)
Time: 09:47:02
(UTC+03:00)
Language:

Terra - Orbit

View from above orbital plane
View from above orbital plane
View from above satellite
View from above satellite

Ground track
Ground track

The orbit data is extracted from the following two-line orbital elements,

1 25994U 99068A   18114.75912643  .00000104  00000-0  33208-4 0  9998
2 25994  98.2066 190.3957 0000865 102.9203 257.2090 14.57096802976045
Epoch (UTC): 24 April 2018 18:13:08
Eccentricity: 0.0000865
inclination: 98.2066°
perigee height: 702 km
apogee height: 703 km
right ascension of ascending node: 190.3957°
argument of perigee: 102.9203°
revolutions per day: 14.57096802
mean anomaly at epoch: 257.2090°
orbit number at epoch: 97604

The dashed part of the orbit path shows where the satellite is in the earth's shadow,  

DLR